Location: Maiden
(35.5760°N, 81.2120°W)
Time: 07:11:55
(UTC-04:00)

Tiros 1 - All Passes

Search period start: 10 August 2020 00:00
Search period end: 20 August 2020 00:00
Orbit: 630 x 664 km, 48.4° (Epoch: 09 August)

Date Brightness Start Highest point End Pass type
(mag) Time Alt. Az. Time Alt. Az. Time Alt. Az.
10 Aug - 09:16:06 10° SSW 09:20:17 33° SE 09:24:27 10° ENE daylight
10 Aug - 10:57:54 10° WSW 11:02:22 45° NNW 11:06:50 10° NE daylight
10 Aug - 12:42:13 10° NW 12:45:27 18° N 12:48:40 10° NE daylight
10 Aug - 14:25:45 10° NW 14:29:00 18° N 14:32:14 10° NE daylight
10 Aug - 16:07:36 10° NW 16:12:03 46° NNE 16:16:30 10° ESE daylight
10 Aug - 17:50:01 10° WNW 17:54:07 32° SW 17:58:13 10° SSE daylight
11 Aug - 08:02:45 10° SSE 08:04:33 12° SE 08:06:22 10° ESE daylight
11 Aug - 09:41:29 10° SW 09:46:09 80° SE 09:50:48 10° NE daylight
11 Aug - 11:24:48 10° WNW 11:28:43 26° NNW 11:32:39 10° NE daylight
11 Aug - 13:09:12 10° NW 13:12:09 16° N 13:15:04 10° NE daylight
11 Aug - 14:51:42 10° NW 14:55:34 25° NNE 14:59:25 10° ENE daylight
11 Aug - 16:33:32 10° NW 16:38:10 84° SW 16:42:47 10° SE daylight
11 Aug - 18:17:48 10° WSW 18:19:47 13° SW 18:21:45 10° SSW daylight
12 Aug - 08:26:07 10° SSW 08:30:12 30° SE 08:34:17 10° ENE daylight
12 Aug - 10:07:44 10° WSW 10:12:15 48° NNW 10:16:45 10° NE daylight
12 Aug - 11:51:59 10° WNW 11:55:17 19° NNW 11:58:34 10° NE daylight
12 Aug - 13:35:38 10° NW 13:38:50 18° N 13:42:01 10° NE daylight
12 Aug - 15:17:31 10° NW 15:21:56 43° NNE 15:26:20 10° ESE daylight
12 Aug - 16:59:51 10° WNW 17:04:03 35° SW 17:08:14 10° SSE daylight
13 Aug - 07:13:20 10° SE 07:14:30 11° SE 07:15:39 10° ESE daylight
13 Aug - 08:51:23 10° SW 08:56:03 74° SE 09:00:42 10° ENE daylight
13 Aug - 10:34:34 10° W 10:38:35 27° NNW 10:42:34 10° NE daylight
13 Aug - 12:19:01 10° NW 12:21:58 16° N 12:24:54 10° NE daylight
13 Aug - 14:01:37 10° NW 14:05:25 24° NNE 14:09:12 10° ENE daylight
13 Aug - 15:43:26 10° NW 15:48:04 89° NE 15:52:41 10° SE daylight
13 Aug - 17:27:20 10° W 17:29:43 14° SW 17:32:06 10° SSW daylight
14 Aug - 07:36:08 10° SSW 07:40:08 28° SE 07:44:06 10° ENE daylight
14 Aug - 09:17:33 10° WSW 09:22:08 52° NNW 09:26:41 10° NE daylight
14 Aug - 11:01:45 10° WNW 11:05:07 19° NNW 11:08:28 10° NE daylight
14 Aug - 12:45:31 10° NW 12:48:40 18° N 12:51:48 10° NE daylight
14 Aug - 14:27:26 10° NW 14:31:48 40° NNE 14:36:10 10° E daylight
14 Aug - 16:09:42 10° WNW 16:13:59 38° SW 16:18:14 10° SSE daylight
15 Aug - 08:01:17 10° SW 08:05:57 67° SE 08:10:36 10° ENE daylight
15 Aug - 09:44:21 10° W 09:48:26 29° NNW 09:52:30 10° NE daylight
15 Aug - 11:28:49 10° NW 11:31:48 16° N 11:34:45 10° NE daylight
15 Aug - 13:11:32 10° NW 13:15:16 23° NNE 13:18:59 10° ENE daylight
15 Aug - 14:53:20 10° NW 14:57:58 83° NE 15:02:36 10° SE daylight
15 Aug - 16:36:57 10° W 16:39:40 15° SW 16:42:23 10° SSW daylight
16 Aug - 06:46:11 10° S 06:50:03 25° SE 06:53:55 10° ENE daylight
16 Aug - 08:27:23 10° WSW 08:32:00 56° NNW 08:36:36 10° NE daylight
16 Aug - 10:11:30 10° WNW 10:14:57 20° NNW 10:18:23 10° NE daylight
16 Aug - 11:55:23 10° NW 11:58:30 17° N 12:01:36 10° NE daylight
16 Aug - 13:37:21 10° NW 13:41:41 38° NNE 13:45:59 10° E daylight
16 Aug - 15:19:32 10° WNW 15:23:53 42° SW 15:28:14 10° SSE daylight
17 Aug - 07:11:12 10° SW 07:15:52 61° SE 07:20:29 10° ENE daylight
17 Aug - 08:54:08 10° W 08:58:17 31° NNW 09:02:26 10° NE daylight
17 Aug - 10:38:36 10° NW 10:41:37 17° N 10:44:36 10° NE daylight
17 Aug - 12:21:26 10° NW 12:25:07 22° NNE 12:28:46 10° ENE daylight
17 Aug - 14:03:14 10° NW 14:07:52 76° NE 14:12:29 10° ESE daylight
17 Aug - 15:46:37 10° W 15:49:37 17° SW 15:52:36 10° S daylight
18 Aug - 05:56:15 10° S 05:59:59 23° SE 06:03:42 10° E visible
18 Aug - 07:37:13 10° WSW 07:41:53 61° NNW 07:46:31 10° NE daylight
18 Aug - 09:21:15 10° WNW 09:24:47 21° NNW 09:28:18 10° NE daylight
18 Aug - 11:05:14 10° NW 11:08:19 17° N 11:11:23 10° NE daylight
18 Aug - 12:47:16 10° NW 12:51:33 35° NNE 12:55:48 10° E daylight
18 Aug - 14:29:24 10° WNW 14:33:49 46° SW 14:38:13 10° SSE daylight
19 Aug - 06:21:09 10° SW 06:25:46 56° SE 06:30:22 10° ENE visible
19 Aug - 08:03:54 10° W 08:08:09 32° NNW 08:12:22 10° NE daylight
19 Aug - 09:48:23 10° NW 09:51:26 17° N 09:54:28 10° NE daylight
19 Aug - 11:31:20 10° NW 11:34:57 22° NNE 11:38:33 10° ENE daylight
19 Aug - 13:13:08 10° NW 13:17:46 70° NE 13:22:22 10° ESE daylight
19 Aug - 14:56:19 10° W 14:59:33 19° SW 15:02:46 10° S daylight
